Total_Precipitation_Accumulation
0.02 0.03 0.07 0.17 0.21 0.27 0.42 0.40 0.25 0.19 0.18 0.17 0.18 0.19 0.21 0.24 0.33 0.50 0.70 0.82 0.93 0.98 1.00 1.05 1.09 1.17 1.19 1.12 1.17 1.22 1.32 1.45 1.32 1.07 1.11 1.23 1.09 0.83 0.66 0.59 0.52 0.52 0.50
0.02 0.02 0.05 0.15 0.20 0.23 0.31 0.34 0.26 0.21 0.18 0.16 0.15 0.14 0.13 0.16 0.25 0.42 0.59 0.75 0.90 1.01 1.04 1.06 0.97 0.97 1.07 1.12 1.15 1.19 1.23 1.36 1.30 1.20 1.16 1.25 1.23 1.06 0.87 0.67 0.51 0.43 0.44
0.02 0.03 0.05 0.07 0.08 0.10 0.12 0.16 0.20 0.23 0.24 0.21 0.19 0.19 0.22 0.28 0.36 0.45 0.52 0.64 0.80 0.89 0.93 0.91 0.88 0.91 0.92 1.02 1.08 1.10 1.12 1.13 1.20 1.21 1.21 1.32 1.34 1.19 0.96 0.76 0.58 0.52 0.48
0.02 0.03 0.04 0.05 0.04 0.05 0.08 0.12 0.18 0.21 0.23 0.21 0.21 0.26 0.32 0.40 0.43 0.43 0.46 0.54 0.60 0.67 0.72 0.71 0.70 0.76 0.82 0.87 0.90 0.93 0.99 1.04 1.10 1.12 1.19 1.32 1.35 1.34 1.13 0.89 0.69 0.57 0.53
0.04 0.09 0.09 0.07 0.06 0.06 0.08 0.10 0.13 0.14 0.14 0.18 0.23 0.28 0.34 0.38 0.36 0.39 0.44 0.41 0.47 0.48 0.46 0.49 0.51 0.55 0.62 0.72 0.73 0.77 0.86 0.92 0.97 1.07 1.15 1.31 1.34 1.37 1.22 0.99 0.84 0.71 0.60
0.08 0.14 0.17 0.14 0.08 0.06 0.06 0.08 0.10 0.11 0.14 0.19 0.23 0.26 0.28 0.25 0.25 0.26 0.27 0.27 0.31 0.37 0.38 0.37 0.35 0.41 0.46 0.52 0.57 0.62 0.72 0.80 0.88 0.99 1.09 1.21 1.30 1.27 1.22 1.14 1.01 0.83 0.65
0.13 0.12 0.18 0.20 0.10 0.06 0.07 0.09 0.13 0.14 0.18 0.23 0.26 0.27 0.29 0.31 0.19 0.13 0.11 0.16 0.24 0.31 0.37 0.41 0.30 0.24 0.33 0.42 0.49 0.50 0.53 0.60 0.72 0.86 0.96 1.09 1.25 1.31 1.32 1.23 1.15 1.01 0.80
0.16 0.13 0.19 0.22 0.13 0.13 0.15 0.17 0.20 0.24 0.28 0.32 0.32 0.33 0.37 0.35 0.22 0.12 0.09 0.12 0.20 0.28 0.34 0.39 0.37 0.32 0.32 0.38 0.48 0.51 0.49 0.47 0.53 0.64 0.74 0.94 1.27 1.48 1.48 1.46 1.42 1.33 1.12
0.15 0.15 0.21 0.28 0.24 0.24 0.26 0.29 0.34 0.38 0.39 0.40 0.42 0.42 0.45 0.44 0.31 0.17 0.14 0.18 0.27 0.31 0.35 0.38 0.38 0.35 0.28 0.24 0.35 0.44 0.48 0.49 0.47 0.56 0.67 0.83 1.06 1.39 1.55 1.57 1.60 1.42 1.21
0.16 0.18 0.24 0.37 0.43 0.40 0.40 0.43 0.45 0.52 0.55 0.55 0.52 0.51 0.53 0.57 0.47 0.24 0.19 0.26 0.37 0.41 0.48 0.48 0.40 0.36 0.30 0.21 0.30 0.39 0.43 0.46 0.49 0.51 0.56 0.62 0.77 1.04 1.29 1.31 1.31 1.34 1.13
0.22 0.25 0.31 0.45 0.59 0.58 0.57 0.57 0.59 0.62 0.69 0.74 0.74 0.72 0.70 0.68 0.58 0.31 0.23 0.32 0.43 0.51 0.52 0.53 0.50 0.39 0.29 0.22 0.24 0.33 0.36 0.42 0.54 0.61 0.65 0.70 0.79 0.90 1.05 1.15 1.19 1.19 1.11
0.31 0.34 0.40 0.53 0.57 0.61 0.69 0.74 0.82 0.86 0.87 0.89 0.92 0.88 0.87 0.83 0.65 0.44 0.25 0.28 0.43 0.61 0.63 0.62 0.62 0.50 0.37 0.30 0.24 0.23 0.26 0.31 0.45 0.58 0.64 0.67 0.71 0.75 0.85 1.00 1.15 1.18 1.16
0.42 0.43 0.47 0.55 0.68 0.82 0.87 0.84 0.90 0.99 1.03 1.05 1.05 0.99 0.97 1.02 0.87 0.51 0.35 0.32 0.40 0.60 0.76 0.80 0.70 0.56 0.48 0.40 0.34 0.29 0.27 0.29 0.39 0.47 0.54 0.57 0.62 0.70 0.84 1.02 1.20 1.34 1.30
0.49 0.46 0.50 0.60 0.69 0.83 0.98 1.00 1.06 1.09 1.10 1.15 1.15 1.08 1.07 1.16 1.10 0.80 0.57 0.47 0.46 0.56 0.69 0.74 0.70 0.67 0.61 0.54 0.45 0.37 0.30 0.32 0.38 0.42 0.50 0.60 0.71 0.86 0.93 0.95 1.02 1.17 1.29
0.56 0.50 0.51 0.58 0.68 0.77 0.90 1.01 1.04 1.06 1.01 1.03 1.07 1.03 1.04 1.14 1.08 0.85 0.72 0.67 0.63 0.65 0.72 0.80 0.83 0.84 0.75 0.67 0.60 0.53 0.49 0.47 0.44 0.48 0.57 0.66 0.71 0.78 0.88 0.94 0.95 0.97 1.00
0.76 0.66 0.60 0.59 0.66 0.73 0.83 0.86 0.77 0.76 0.74 0.74 0.78 0.73 0.74 0.91 0.93 0.74 0.62 0.64 0.64 0.62 0.69 0.79 0.85 0.89 0.84 0.76 0.70 0.64 0.63 0.59 0.55 0.56 0.60 0.66 0.70 0.73 0.79 0.91 0.98 0.95 0.88
1.01 0.85 0.72 0.66 0.66 0.69 0.78 0.86 0.88 0.78 0.70 0.64 0.61 0.54 0.51 0.72 0.83 0.72 0.61 0.57 0.54 0.55 0.63 0.71 0.74 0.81 0.85 0.78 0.72 0.66 0.65 0.64 0.65 0.65 0.63 0.65 0.70 0.74 0.79 0.86 0.93 0.98 0.92
1.06 0.94 0.79 0.75 0.73 0.70 0.74 0.83 0.91 0.99 0.95 0.78 0.61 0.52 0.46 0.60 0.73 0.71 0.62 0.54 0.52 0.54 0.59 0.66 0.72 0.76 0.82 0.79 0.70 0.68 0.72 0.76 0.72 0.70 0.70 0.68 0.69 0.72 0.76 0.81 0.85 0.89 0.90
0.98 0.91 0.82 0.79 0.80 0.73 0.68 0.74 0.81 0.89 0.99 0.95 0.77 0.64 0.57 0.64 0.73 0.69 0.58 0.51 0.53 0.53 0.56 0.62 0.68 0.75 0.78 0.75 0.74 0.75 0.76 0.79 0.72 0.70 0.74 0.75 0.68 0.70 0.71 0.77 0.84 0.91 0.95
0.82 0.67 0.65 0.72 0.73 0.70 0.68 0.72 0.80 0.89 0.97 0.95 0.84 0.72 0.62 0.65 0.73 0.72 0.62 0.57 0.56 0.53 0.51 0.56 0.64 0.68 0.72 0.74 0.78 0.80 0.77 0.80 0.80 0.72 0.73 0.78 0.70 0.67 0.67 0.67 0.76 0.79 0.78
0.70 0.57 0.47 0.52 0.62 0.67 0.70 0.76 0.87 0.94 0.97 0.90 0.77 0.63 0.54 0.52 0.61 0.61 0.63 0.63 0.59 0.56 0.55 0.54 0.58 0.62 0.63 0.67 0.73 0.76 0.76 0.78 0.80 0.72 0.69 0.75 0.71 0.68 0.70 0.66 0.68 0.76 0.76
0.66 0.55 0.46 0.47 0.53 0.58 0.68 0.80 0.89 0.90 0.85 0.79 0.71 0.62 0.58 0.54 0.58 0.59 0.63 0.62 0.58 0.55 0.51 0.50 0.51 0.55 0.57 0.59 0.62 0.66 0.69 0.69 0.70 0.69 0.67 0.71 0.72 0.69 0.70 0.69 0.69 0.76 0.81
0.58 0.45 0.37 0.37 0.41 0.44 0.57 0.75 0.81 0.75 0.67 0.64 0.64 0.62 0.61 0.61 0.59 0.59 0.61 0.60 0.57 0.52 0.47 0.47 0.48 0.50 0.54 0.52 0.50 0.53 0.58 0.59 0.56 0.58 0.66 0.68 0.70 0.71 0.69 0.71 0.71 0.70 0.77
0.51 0.39 0.28 0.25 0.29 0.39 0.54 0.71 0.71 0.62 0.57 0.59 0.59 0.60 0.60 0.58 0.57 0.58 0.59 0.59 0.56 0.53 0.50 0.49 0.47 0.45 0.45 0.49 0.48 0.45 0.46 0.44 0.44 0.50 0.58 0.65 0.68 0.75 0.72 0.71 0.72 0.68 0.73
0.48 0.39 0.30 0.25 0.29 0.41 0.59 0.68 0.61 0.53 0.53 0.53 0.51 0.53 0.56 0.58 0.59 0.59 0.58 0.58 0.56 0.56 0.53 0.48 0.45 0.43 0.39 0.38 0.39 0.36 0.32 0.28 0.30 0.41 0.52 0.62 0.65 0.71 0.72 0.68 0.73 0.73 0.73
0.45 0.41 0.35 0.31 0.34 0.46 0.58 0.62 0.56 0.52 0.54 0.52 0.49 0.51 0.55 0.59 0.59 0.56 0.55 0.53 0.53 0.51 0.43 0.38 0.35 0.35 0.33 0.31 0.25 0.21 0.18 0.18 0.22 0.29 0.40 0.52 0.61 0.66 0.69 0.71 0.74 0.78 0.73